Regional Weather Roundup
Issued by NWS Austin/San Antonio, TX

Home | Current Version | Previous Version | Text Only | Print | Product List | Glossary On
Versions: 1 2 3 4 5 6 7 8 9 10 11 12 13 14 15 16 17 18 19 20 21 22 23 24 25 26 27 28 29 30 31 32 33 34 35 36 37 38 39 40 41 42 43 44 45 46 47 48 49 50
000
ASUS44 KEWX 200210
RWREWX
SOUTH TEXAS REGIONAL WEATHER ROUNDUP
NATIONAL WEATHER SERVICE AUSTIN/SAN ANTONIO TX
800 PM CST SUN NOV 19 2017

NOTE: "FAIR" INDICATED FEW OR NO CLOUDS BELOW 12,000 FEET WITH NO
SIGNIFICANT WEATHER AND/OR OBSTRUCTIONS TO VISIBILITY.

* - THESE STATIONS ARE NOT NWS OR FAA STATIONS...AND ARE NOT SUBJECT
    TO NWS AND FAA QUALITY CONTROL.

TXZ171-172-183>190-200300-
TEXAS HILL COUNTRY AND EDWARDS PLATEAU

CITY           SKY/WX    TMP DP  RH WIND       PRES   REMARKS
JUNCTION       CLOUDY    45  30  55 CALM      30.23S
*LLANO         CLEAR     45  36  70 CALM      30.27S
BURNET         CLEAR     48  32  53 NE3       30.26S
*HORSESHOE BAY CLEAR     42  32  69 CALM      30.25S
*KERRVILLE     CLOUDY    44  31  61 CALM      30.24S
*FREDERICKSBRG CLEAR     41  31  68 CALM      30.24S
*ROCKSPRINGS   NOT AVBL
*BOERNE STAGE  CLOUDY    43  32  65 CALM      30.25S
*CASTROVILLE   CLOUDY    55  28  35 CALM      30.26R
HONDO          CLOUDY    56  28  34 E3        30.24R
*UVALDE        CLOUDY    52  35  52 CALM      30.25R
DEL RIO        PTCLDY    54  32  43 SE5       30.22R
LAUGHLIN AFB   MOCLDY    53  33  47 SE3       30.22R
CARRIZO SPRGS  CLOUDY    54  41  62 CALM      30.23R
*EAGLE PASS    CLEAR     52  37  58 CALM      30.23S
$$

TXZ173-191>194-202-209-217>225-228-200300-
CENTRAL AND SOUTH CENTRAL TEXAS

CITY           SKY/WX    TMP DP  RH WIND       PRES   REMARKS
GEORGETOWN     CLOUDY    45  30  55 CALM      30.26S
AUSTIN/BERGSTM PTCLDY    44  37  76 CALM      30.25R
AUSTIN/MABRY   CLOUDY    50  33  52 CALM      30.26R
*AUSTIN/EXEC   CLOUDY    50  30  46 CALM      30.26R
*LAGO VISTA    PTCLDY    52  29  41 E3        30.25S
SAN MARCOS     CLOUDY    47  30  51 N6        30.25S WCI  44
NEW BRAUNFELS  CLOUDY    50  31  48 NE3       30.23S
RANDOLPH AFB   CLOUDY    50  34  53 NE3       30.24R
PT SAN ANTONIO CLOUDY    52  34  49 E3        30.22R
SAN ANTONIO    CLOUDY    54  31  41 CALM      30.24S
STINSON FIELD  CLOUDY    59  29  31 E6        30.22S
*LA GRANGE     CLEAR     50  40  68 CALM      30.24R
*GIDDINGS      CLEAR     46  37  72 CALM      30.26R
*GONZALES      CLEAR     54  32  44 NE3       30.24S
$$

TXZ163>164-176>182-195>201-210>213-226-227-235-200300-
SOUTHEAST TEXAS

CITY           SKY/WX    TMP DP  RH WIND       PRES   REMARKS
COLLEGE STN    CLEAR     51  36  56 CALM      30.25R HAZE
*BRYAN         CLEAR     50  35  57 N5        30.26R WCI  48
*CALDWELL      CLEAR     47  37  69 CALM      30.25S
*CROCKETT        N/A    N/A N/A N/A MISG        N/A
*BRENHAM       CLEAR     50  38  63 CALM      30.26R
HUNTSVILLE     PTCLDY    48  39  71 CALM      30.24S
CONROE         PTCLDY    44  43  96 CALM      30.25R
HOUSTON BUSH   MOCLDY    50  38  63 CALM      30.25R
HOUSTON HOBBY  CLOUDY    56  34  43 N6        30.24R
*HOUSTON SW AP CLOUDY    50  40  69 CALM      30.25S
PEARLAND       CLOUDY    53  42  66 CALM      30.25R
HOUSTON HOOKS  CLOUDY    47  43  86 CALM      30.25R
ELLINGTON FLD  MOCLDY    59  34  38 N5        30.26R
SUGAR LAND     CLOUDY    51  39  63 N3        30.24R
*HOUSTON EXEC  CLOUDY    50  37  62 N3        30.26S
*CLEVELAND MUN CLOUDY    44  42  92 CALM      30.26R
*WHARTON       CLOUDY    51  35  53 CALM      30.24S
*COLUMBUS      FAIR      50  37  62 N5        30.26R WCI  48
*EAGLE LAKE    CLEAR     51  36  55 N3        30.24S
$$

TXZ214>216-236>238-200300-
THE UPPER TEXAS COAST

CITY           SKY/WX    TMP DP  RH WIND       PRES   REMARKS
*ORANGE        PTCLDY    45  41  86 CALM      30.25R
PORT ARTHUR    PTCLDY    49  38  65 N3        30.23R
GALVESTON      PTCLDY    61  39  44 NE12      30.24R
ANGLETON       CLOUDY    52  40  63 CALM      30.23S
*BAY CITY      CLOUDY    54  36  50 CALM      30.24R
PALACIOS       CLOUDY    53  37  54 N5        30.24R
$$

TXZ229>234-239>247-200300-
TEXAS COASTAL BEND AND RIO GRANDE PLAINS

CITY           SKY/WX    TMP DP  RH WIND       PRES   REMARKS
VICTORIA       CLOUDY    52  38  58 N6        30.25R
*BEEVILLE      CLOUDY    57  35  42 CALM      30.23S
ROCKPORT       MOCLDY    56  39  53 NE5       30.23R
*PORT ARANSAS  NOT AVBL
*PORT LAVACA   CLOUDY    55  36  49 NE6       30.25R
*INGLESIDE     NOT AVBL
CORPUS CHRISTI MOCLDY    57  36  45 NE8       30.23S
CORPUS NAS     PTCLDY    63  35  35 NE9       30.22S
*ROBSTOWN      MOCLDY    56  34  42 SE5       30.24S
ALICE          MOCLDY    53  32  44 E3        30.23R
KINGSVILLE NAS MOCLDY    54  39  57 SE6       30.24R
COTULLA        CLOUDY    58  31  35 CALM      30.24R
*FAITH RANCH   PTCLDY    55  46  71 CALM      30.24R
LAREDO         CLOUDY    59  35  40 CALM      30.24R
$$

TXZ248>255-200300-
DEEP SOUTH TEXAS

CITY           SKY/WX    TMP DP  RH WIND       PRES   REMARKS
BROWNSVILLE    PTCLDY    61  48  62 NW8       30.24R
PORT ISABEL    PTCLDY    60  49  66 NW8       30.23R
*SOUTH PADRE   NOT AVBL
HARLINGEN      CLEAR     55  44  66 N7        30.24R
*HEBBRONVILLE  CLEAR     55  31  39 CALM      30.24S
MCALLEN        CLEAR     61  42  49 E8        30.25R
*WESLACO       CLEAR     57  42  58 NE3       30.25R
FALFURRIAS     MOCLDY    55  35  46 SE3       30.24R
EDINBURG       CLEAR     56  41  56 E3        30.25S
*ZAPATA        CLEAR     57  33  40 CALM      30.23R
$$

TXZ213>215-236>238-242>244-246-247-251-254-255-200300-
CMAN STATIONS

STATION/POSITION TIME  TEMP    WIND        PRES    WAVE
                       AIR SEA DIR/SP/G            HT/PER
                 (UTC) (F)     (DEG/KT/KT) (MB)    (FT/S)
SABINE PASS      0148   56 70   20/  7/ 10 1024.9
SEA RIM ST PARK  0200   54     350/  4/  4 1024.3
NORTH JETTY/GLS  0142      67   20/ 13/ 15 1023.3
EAGLE POINT      0148   60 65   20/  6/ 10 1024.0
MORGANS POINT    0148   58 69   20/  5/  6 1024.0
PORT O`CONNOR    0148   63 67   30/ 10/ 12 1023.3
PORT ARANSAS     0200   62 71  360/  8/  8 1023.6
MALAQUITE BEACH  0148   62 71  350/  9/ 11 1023.2
BAFFIN BAY       0148   62 68   10/  8/ 10 1023.9
PORT ISABEL      0148   65 73  360/  9/ 12 1023.0
$$



USA.gov is the U.S. government's official web portal to all federal, state and local government web resources and services.